Sheridan, WY (82801)

7:26 AM MST on February 07, 2016 (GMT -0700)
South Sheridan | | Change Station
CLOSE
Current Station
Personal Weather Station
Location: Sheridan, WY
Elevation: 3770 ft
Nearby Weather Stations

Elev 3770 ft 44.79 °N, 106.95 °W | Updated 42 seconds ago

Overcast
Overcast
34.3 °F
Feels Like 34 °F
N
2.0
Wind Variable Wind from West
Gusts 2.5 mph

Today
High -- | Low -- °F
--% Chance of Precip.
Yesterday
High -- | Low -- °F
Precip. -- in
Pressure 30.31 in
Visibility -9999.0 miles
Clouds Overcast 8500 ft
Windchill 34 °F
Dew Point 17 °F
Humidity 49%
Rainfall 0.00 in
Snow Depth Not available.
7:20 AM 5:24 PM
Waning Crescent, 1% visible
METAR KSHR 071353Z AUTO 31019G27KT OVC085 01/M08 A3031
Pressure 30.31 in
Visibility -9999.0 miles
Clouds Overcast 8500 ft
Windchill 34 °F
Dew Point 17 °F
Humidity 49%
Rainfall 0.00 in
Snow Depth Not available.
7:20 AM 5:24 PM
Waning Crescent, 1% visible
METAR KSHR 071353Z AUTO 31019G27KT OVC085 01/M08 A3031

10-Day Weather Forecast

Almanac

Astronomy

Feb. 07, 2016 Rise Set
Actual Time
Civil Twilight
Nautical Twilight
Astronomical Twilight
Moon
Length of Visible Light
Length of Day
Tomorrow will be .
, % of the Moon is Illuminated

Today's Extremes

State Highs State Lows

Community

WunderPhotos

Upload Photos

1,891,204 photos uploaded!

WunderBlog® & News

Nearby

Air Quality

  Air Quality AQ Index Pollutant
Not available.

Snow Depth

Station Depth Elevation

Earthquake Activity

City Distance Mag. Time & Date
Minimum magnitude displayed is 2.5.

Coastal Water Temperatures

Place Temperature

Stations

Nearby Weather Stations

Station Location Temp. Windchill Dew Point Humidity Wind Precip. Elev Updated Type
                   

Watches & Warnings

There are currently no watches in effect.